This is the latest recevied weather packets stored in our database for station/object KC3BHK-2. If no packets are shown the sender has not sent any weather packets the latest 10 day(s).
| Time | Temp. | Humidity | Pressure | Rain* | Wind** | Luminosity | Snow |
|---|---|---|---|---|---|---|---|
| 1778001820 | 28.33° C | - | - | 0 mm | 3.13 m/s, 191° | - | - |
| 1778001515 | 27.78° C | - | - | 0 mm | 3.13 m/s, 146° | - | - |
| 1778001211 | 28.33° C | - | - | 0 mm | 2.24 m/s, 219° | - | - |
| 1778000906 | 27.22° C | - | - | 0 mm | 3.58 m/s, 208° | - | - |
| 1778000602 | 27.78° C | - | - | 0 mm | 4.47 m/s, 193° | - | - |
| 1778000294 | 27.78° C | - | - | 0 mm | 4.92 m/s, 183° | - | - |
| 1777999989 | 27.22° C | - | - | 0 mm | 2.68 m/s, 197° | - | - |
| 1777999684 | 27.22° C | - | - | 0 mm | 7.6 m/s, 197° | - | - |
| 1777999379 | 27.22° C | - | - | 0 mm | 5.36 m/s, 239° | - | - |
| 1777999075 | 27.78° C | - | - | 0 mm | 4.47 m/s, 190° | - | - |
| 1777998770 | 28.33° C | - | - | 0 mm | 3.58 m/s, 228° | - | - |
| 1777998463 | 27.22° C | - | - | 0 mm | 4.02 m/s, 219° | - | - |
| 1777998157 | 27.22° C | - | - | 0 mm | 7.6 m/s, 212° | - | - |
| 1777997851 | 27.78° C | - | - | 0 mm | 3.13 m/s, 193° | - | - |
| 1777997241 | 27.22° C | - | - | 0 mm | 3.13 m/s, 236° | - | - |
| 1777996937 | 26.67° C | - | - | 0 mm | 4.02 m/s, 253° | - | - |
| 1777996629 | 26.11° C | - | - | 0 mm | 4.47 m/s, 226° | - | - |
| 1777996325 | 27.22° C | - | - | 0 mm | 4.02 m/s, 228° | - | - |
| 1777996020 | 26.67° C | - | - | 0 mm | 4.02 m/s, 198° | - | - |
| 1777995715 | 27.22° C | - | - | 0 mm | 7.15 m/s, 184° | - | - |
| 1777995411 | 26.67° C | - | - | 0 mm | 5.81 m/s, 159° | - | - |
| 1777995106 | 26.67° C | - | - | 0 mm | 6.26 m/s, 163° | - | - |
| 1777994798 | 26.67° C | - | - | 0 mm | 5.36 m/s, 212° | - | - |
| 1777994493 | 26.67° C | - | - | 0 mm | 6.26 m/s, 269° | - | - |
| 1777994188 | 26.11° C | - | - | 0 mm | 4.92 m/s, 181° | - | - |
* Rain latest hour (hover to see other rain measurements)
** Current wind speed in m/s (hover to see current wind gust speed)